ISS DEB (44306 NORAD) Tracking and Keplerian Element Data

This shows tracking and keplerian element data for the satellite.

Feedback or suggestion? Click here.




ElementValue
Catalog44306
NameISS DEB
Epoch Orbit13117
Epoch Day261.5658852
Epoch Year2021
RAAN203.2237
Inclination51.6359
Eccentricity0.0004636
Argument of Perigee224.3789
Mean Anonmoly135.6834
Mean Motion15.62242061
Decay Rate0.00014354
L11 44306U 98067QD 21261.56588520 .00014354 00000-0 16530-3 0 9993
L22 44306 51.6359 203.2237 0004636 224.3789 135.6834 15.62242061131173

Live tracking and technical data element details for ISS DEB (NORAD 44306). ISS DEB can be tracked NOW for your location showing map with azimuth and elevation plus other details from your city location.

Track the satellite on the map from your city or location and see movement details for azimuth, elevation, latitude, longitude, range, height, and movement on the map or in text.







IsCatalogInMostPopularTable: catalog: 44306, numindb: 25488
Update: records affected: 1



GetName: 44306 ISS DEB

Hit Count: updated at: Fri, 24 Sep 2021 17:16:15 GMT